| time (UTC) | temp F | wind direction | speed knots | gust knots | rain 1hr in | rain 24hr in | rain mn in | humidity % | barometer mb |
| 20260508134527 | 54 | 227 | 0.0 | 7.0 | 0.00 | 0.00 | 0.00 | 62 | 1014.4 |
| 20260508133016 | 53 | 184 | 0.9 | 6.1 | 0.00 | 0.00 | 0.00 | 65 | 1014.3 |
| 20260508131513 | 52 | 201 | 0.0 | 0.0 | 0.00 | 0.00 | 0.00 | 65 | 1014.5 |
| 20260508130010 | 51 | 242 | 0.0 | 0.9 | 0.00 | 0.00 | 0.00 | 70 | 1014.4 |
| 20260508124511 | 49 | 170 | 0.0 | 0.9 | 0.00 | 0.00 | 0.00 | 72 | 1014.2 |
| 20260508123004 | 48 | 199 | 0.0 | 5.2 | 0.00 | 0.00 | 0.00 | 72 | 1014.1 |
| 20260508121503 | 48 | 198 | 0.0 | 3.5 | 0.00 | 0.00 | 0.00 | 72 | 1014.2 |
| 20260508120002 | 48 | 209 | 0.0 | 2.6 | 0.00 | 0.00 | 0.00 | 72 | 1014.2 |
| 20260508114503 | 47 | 257 | 0.0 | 0.0 | 0.00 | 0.00 | 0.00 | 74 | 1014.1 |
| 20260508113001 | 46 | 200 | 0.0 | 0.0 | 0.00 | 0.00 | 0.00 | 75 | 1014.0 |
| 20260508111501 | 45 | 204 | 0.0 | 0.0 | 0.00 | 0.00 | 0.00 | 75 | 1013.9 |
| 20260508110100 | 45 | 185 | 0.0 | 0.0 | 0.00 | 0.00 | 0.00 | 75 | 1013.9 |
| 20260508104606 | 45 | 180 | 0.0 | 0.0 | 0.00 | 0.00 | 0.00 | 75 | 1013.7 |
| 20260508101538 | 44 | 175 | 0.0 | 0.0 | 0.00 | 0.00 | 0.00 | 75 | 1013.4 |
| 20260508100037 | 45 | 181 | 0.0 | 0.0 | 0.00 | 0.00 | 0.00 | 75 | 1013.3 |
| 20260508094553 | 44 | 209 | 0.0 | 0.0 | 0.00 | 0.00 | 0.00 | 77 | 1013.5 |
| 20260508093036 | 44 | 218 | 0.0 | 0.0 | 0.00 | 0.00 | 0.00 | 77 | 1013.6 |
| 20260508091540 | 44 | 218 | 0.0 | 0.0 | 0.00 | 0.00 | 0.00 | 77 | 1013.7 |
| 20260508090032 | 45 | 219 | 0.0 | 0.0 | 0.00 | 0.00 | 0.00 | 76 | 1013.6 |
| 20260508084531 | 45 | 263 | 0.0 | 0.0 | 0.00 | 0.00 | 0.00 | 76 | 1013.6 |
| 20260508083030 | 45 | 263 | 0.0 | 0.0 | 0.00 | 0.00 | 0.00 | 77 | 1013.4 |
| 20260508081555 | 45 | 263 | 0.0 | 0.0 | 0.00 | 0.00 | 0.00 | 77 | 1013.5 |
| 20260508080026 | 46 | 263 | 0.0 | 0.0 | 0.00 | 0.00 | 0.00 | 76 | 1013.6 |
| 20260508074525 | 46 | 263 | 0.0 | 0.0 | 0.00 | 0.00 | 0.00 | 76 | 1013.7 |
| 20260508073023 | 47 | 263 | 0.0 | 0.0 | 0.00 | 0.00 | 0.00 | 76 | 1013.7 |
| 20260508071536 | 47 | 263 | 0.0 | 0.0 | 0.00 | 0.00 | 0.00 | 76 | 1014.0 |
| 20260508070021 | 47 | 263 | 0.0 | 0.0 | 0.00 | 0.00 | 0.00 | 75 | 1014.0 |
| 20260508064520 | 48 | 263 | 0.0 | 0.0 | 0.00 | 0.00 | 0.00 | 74 | 1014.2 |
| 20260508063031 | 48 | 263 | 0.0 | 0.0 | 0.00 | 0.00 | 0.00 | 71 | 1014.7 |
| 20260508061519 | 48 | 331 | 0.0 | 0.0 | 0.00 | 0.00 | 0.00 | 70 | 1014.9 |
| 20260508060016 | 48 | 292 | 0.0 | 0.0 | 0.00 | 0.00 | 0.00 | 68 | 1014.7 |
| 20260508054515 | 48 | 183 | 0.0 | 0.0 | 0.00 | 0.00 | 0.00 | 69 | 1014.0 |
| 20260508053012 | 47 | 227 | 0.0 | 0.0 | 0.00 | 0.00 | 0.00 | 71 | 1014.3 |
| 20260508051509 | 46 | 227 | 0.0 | 0.0 | 0.00 | 0.00 | 0.00 | 74 | 1014.2 |
| 20260508050008 | 46 | 288 | 0.0 | 0.0 | 0.00 | 0.00 | 0.00 | 75 | 1014.2 |
| 20260508044507 | 46 | 288 | 0.0 | 0.0 | 0.00 | 0.00 | 0.00 | 76 | 1014.3 |
| 20260508043009 | 46 | 288 | 0.0 | 0.0 | 0.00 | 0.00 | 0.00 | 76 | 1014.5 |
| 20260508041504 | 46 | 288 | 0.0 | 0.0 | 0.00 | 0.00 | 0.00 | 74 | 1014.3 |
| 20260508040104 | 46 | 288 | 0.0 | 0.0 | 0.00 | 0.00 | 0.00 | 74 | 1014.4 |
| 20260508034600 | 45 | 288 | 0.0 | 0.0 | 0.00 | 0.00 | 0.00 | 75 | 1014.3 |
| 20260508033100 | 45 | 288 | 0.0 | 0.0 | 0.00 | 0.00 | 0.00 | 76 | 1014.5 |
| 20260508031559 | 45 | 288 | 0.0 | 0.0 | 0.00 | 0.00 | 0.00 | 73 | 1014.3 |
| 20260508030103 | 44 | 288 | 0.0 | 0.0 | 0.00 | 0.00 | 0.00 | 75 | 1014.4 |
| 20260508024557 | 45 | 288 | 0.0 | 0.0 | 0.00 | 0.00 | 0.00 | 76 | 1014.4 |
| 20260508023059 | 45 | 288 | 0.0 | 0.0 | 0.00 | 0.00 | 0.00 | 73 | 1014.3 |
| 20260508021557 | 46 | 288 | 0.0 | 0.0 | 0.00 | 0.00 | 0.00 | 75 | 1014.5 |
| 20260508014557 | 46 | 288 | 0.0 | 0.0 | 0.00 | 0.00 | 0.00 | 73 | 1014.4 |
| 20260508013054 | 47 | 288 | 0.0 | 0.0 | 0.00 | 0.00 | 0.00 | 68 | 1014.3 |
| 20260508011553 | 48 | 288 | 0.0 | 0.0 | 0.00 | 0.00 | 0.00 | 64 | 1014.1 |
| 20260508010052 | 50 | 288 | 0.0 | 0.0 | 0.00 | 0.00 | 0.00 | 62 | 1014.1 |
| 20260508004555 | 51 | 288 | 0.0 | 0.0 | 0.00 | 0.00 | 0.00 | 58 | 1014.1 |
| 20260508003051 | 52 | 288 | 0.0 | 0.0 | 0.00 | 0.00 | 0.00 | 56 | 1013.9 |
| 20260508001550 | 54 | 288 | 0.0 | 0.0 | 0.00 | 0.00 | 0.00 | 51 | 1013.8 |
| 20260508000051 | 55 | 288 | 0.0 | 0.0 | 0.00 | 0.00 | 0.00 | 46 | 1013.7 |
| 20260507234550 | 56 | 287 | 0.0 | 0.0 | 0.00 | 0.00 | 0.00 | 45 | 1013.6 |
| 20260507233049 | 56 | 294 | 0.0 | 2.6 | 0.00 | 0.00 | 0.00 | 43 | 1013.6 |
| 20260507231553 | 56 | 294 | 0.0 | 2.6 | 0.00 | 0.00 | 0.00 | 45 | 1013.5 |
| 20260507230051 | 56 | 294 | 0.0 | 7.0 | 0.00 | 0.00 | 0.00 | 42 | 1013.5 |
| 20260507224550 | 57 | 300 | 0.0 | 0.9 | 0.00 | 0.00 | 0.00 | 43 | 1013.7 |
| 20260507223047 | 57 | 9 | 0.0 | 3.5 | 0.00 | 0.00 | 0.00 | 43 | 1013.8 |
| 20260507221545 | 57 | 300 | 0.0 | 4.3 | 0.00 | 0.00 | 0.00 | 43 | 1013.8 |
| 20260507220045 | 57 | 321 | 0.0 | 3.5 | 0.00 | 0.00 | 0.00 | 41 | 1013.9 |
| 20260507214600 | 57 | 301 | 0.0 | 7.8 | 0.00 | 0.00 | 0.00 | 40 | 1013.6 |
| 20260507213045 | 56 | 287 | 0.0 | 7.0 | 0.00 | 0.00 | 0.00 | 46 | 1013.5 |
| 20260507211543 | 56 | 310 | 1.7 | 8.7 | 0.00 | 0.00 | 0.00 | 41 | 1013.5 |
| 20260507210040 | 57 | 294 | 0.0 | 7.0 | 0.00 | 0.00 | 0.00 | 45 | 1013.3 |
| 20260507204539 | 56 | 309 | 1.7 | 7.0 | 0.00 | 0.00 | 0.00 | 46 | 1013.4 |
| 20260507203047 | 55 | 301 | 1.7 | 5.2 | 0.00 | 0.00 | 0.00 | 47 | 1013.3 |
| 20260507201536 | 56 | 259 | 0.0 | 4.3 | 0.00 | 0.00 | 0.00 | 46 | 1013.4 |
| 20260507200043 | 55 | 313 | 0.0 | 4.3 | 0.00 | 0.00 | 0.00 | 48 | 1013.5 |
| 20260507194534 | 56 | 300 | 0.0 | 4.3 | 0.00 | 0.00 | 0.00 | 49 | 1013.4 |
| 20260507193033 | 56 | 279 | 1.7 | 7.8 | 0.00 | 0.00 | 0.00 | 44 | 1013.5 |
| 20260507191530 | 56 | 311 | 0.9 | 5.2 | 0.00 | 0.00 | 0.00 | 51 | 1013.4 |
| 20260507190030 | 55 | 250 | 2.6 | 7.0 | 0.00 | 0.00 | 0.00 | 49 | 1013.7 |
| 20260507184528 | 56 | 273 | 0.0 | 6.1 | 0.00 | 0.00 | 0.00 | 49 | 1013.6 |
| 20260507183030 | 56 | 248 | 0.9 | 8.7 | 0.00 | 0.00 | 0.00 | 49 | 1013.7 |
| 20260507181530 | 55 | 298 | 0.0 | 7.0 | 0.00 | 0.00 | 0.00 | 53 | 1013.4 |
| 20260507180124 | 55 | 299 | 0.9 | 7.0 | 0.00 | 0.00 | 0.00 | 53 | 1013.6 |
| 20260507174522 | 54 | 315 | 1.7 | 5.2 | 0.00 | 0.00 | 0.00 | 50 | 1013.8 |
| 20260507173030 | 54 | 290 | 0.0 | 8.7 | 0.00 | 0.00 | 0.00 | 50 | 1014.0 |
| 20260507171520 | 54 | 234 | 1.7 | 5.2 | 0.00 | 0.00 | 0.00 | 48 | 1014.2 |
| 20260507170018 | 54 | 275 | 0.9 | 7.0 | 0.00 | 0.00 | 0.00 | 48 | 1014.4 |
| 20260507164519 | 54 | 300 | 1.7 | 7.8 | 0.00 | 0.00 | 0.00 | 47 | 1014.2 |
| 20260507163016 | 53 | 196 | 0.0 | 7.8 | 0.00 | 0.00 | 0.00 | 49 | 1014.4 |
| 20260507161519 | 53 | 231 | 1.7 | 11.3 | 0.00 | 0.00 | 0.00 | 47 | 1014.3 |
| 20260507160017 | 53 | 227 | 0.0 | 7.0 | 0.00 | 0.00 | 0.00 | 53 | 1014.3 |
| 20260507154513 | 53 | 234 | 0.0 | 1.7 | 0.00 | 0.00 | 0.00 | 53 | 1014.2 |
| 20260507153010 | 52 | 317 | 0.0 | 10.4 | 0.00 | 0.00 | 0.00 | 51 | 1014.1 |
| 20260507151509 | 52 | 272 | 0.0 | 4.3 | 0.00 | 0.00 | 0.00 | 54 | 1014.1 |
| 20260507150019 | 51 | 331 | 0.0 | 6.1 | 0.00 | 0.00 | 0.00 | 57 | 1014.2 |
| 20260507144518 | 51 | 273 | 0.0 | 3.5 | 0.00 | 0.00 | 0.00 | 56 | 1014.3 |
| 20260507143005 | 51 | 283 | 0.0 | 1.7 | 0.00 | 0.00 | 0.00 | 58 | 1014.4 |
| 20260507141502 | 50 | 319 | 0.0 | 1.7 | 0.00 | 0.00 | 0.00 | 60 | 1014.5 |
| 20260507140001 | 50 | 317 | 0.0 | 5.2 | 0.00 | 0.00 | 0.00 | 60 | 1014.4 |